Home > Weather > Joensuu > Past weeks

Flag for Finland Past Weather in Joensuu, Finland — Yesterday and Last 2 Weeks

Now
50 °F

Clear.


Feels Like: 50 °F
Forecast: 54 / 66 °F
Wind: 1 mph from South

Location: Joensuu Airport

Current Time: Aug 26, 2016 at 11:06:02 PM

Latest Report: Aug 26, 2016 at 10:20 PM


Visibility: 10 mi

Pressure: 29.95 "Hg

Humidity: 100%

Dew Point: 50 °F

Location of JoensuuLocation

Past Weather in Joensuu — Graph

°F

Joensuu Temperature Yesterday

Maximum temperature yesterday: 55 °F (at 4:50 PM)
Minimum temperature yesterday: 52 °F (at 12:20 AM)
Average temperature yesterday: 53 °F

High & Low Weather Summary for the Past Weeks

 TemperatureHumidityPressure
High73 °F (Aug 22, 1:50 PM)100% (Aug 13, 11:20 PM)30.18 "Hg (Aug 13, 11:20 PM)
Low46 °F (Aug 12, 11:20 PM)43% (Aug 26, 3:20 PM)29.53 "Hg (Aug 16, 8:50 AM)
Average59 °F87%29.96 "Hg
* Reported Aug 11 9:20 PM — Aug 26 9:50 PM, Joensuu, Weather by CustomWeather, © 2016

Note: Actual official high and low records may vary slightly from our data, if they occured in-between our weather recording intervals... More about our weather records

Advertising

Joensuu Weather History for the Previous 24 Hours

Scroll right to see more
 ConditionsComfort  
Time TempWeatherWind HumidityBarometerVisibility
9:50 PM
Fri, Aug 26
52 °FClear.No wind94%29.98 "Hg10 mi
9:20 PM52 °FSunny.No wind94%29.98 "Hg10 mi
8:50 PM54 °FSunny.No wind88%29.98 "Hg10 mi
8:20 PM57 °FSunny.3 mph77%29.98 "Hg10 mi
7:50 PM59 °FSunny.3 mph68%29.98 "Hg10 mi
7:20 PM63 °FSunny.2 mph59%29.98 "Hg10 mi
6:50 PM63 °FPassing clouds.5 mph56%30.01 "HgN/A
6:20 PM64 °FPassing clouds.5 mph52%30.01 "HgN/A
5:50 PM64 °FPassing clouds.6 mph49%30.01 "HgN/A
5:20 PM64 °FPassing clouds.7 mph49%30.01 "HgN/A
4:50 PM64 °FPassing clouds.7 mph46%30.01 "HgN/A
4:20 PM64 °FPassing clouds.9 mph46%30.01 "HgN/A
3:50 PM64 °FPassing clouds.10 mph49%30.01 "HgN/A
3:20 PM66 °FPassing clouds.9 mph43%30.01 "HgN/A
2:50 PM64 °FPassing clouds.10 mph46%30.01 "HgN/A
2:20 PM64 °FPassing clouds.9 mph46%30.01 "HgN/A
1:50 PM64 °FScattered clouds.12 mph49%30.01 "HgN/A
1:20 PM64 °FPassing clouds.12 mph49%30.01 "HgN/A
12:50 PM63 °FPassing clouds.12 mph56%29.98 "HgN/A
12:20 PM61 °FPassing clouds.10 mph59%29.98 "HgN/A
11:50 AM61 °FPassing clouds.10 mph68%29.98 "HgN/A
11:20 AM61 °FPassing clouds.12 mph68%29.98 "HgN/A
10:50 AM59 °FPassing clouds.10 mph72%29.98 "HgN/A
10:20 AM59 °FScattered clouds.10 mph77%29.98 "HgN/A
9:50 AM57 °FBroken clouds.9 mph88%29.98 "HgN/A
9:20 AM57 °FPartly sunny.7 mph88%29.98 "HgN/A
8:50 AM55 °FPartly sunny.8 mph94%29.98 "HgN/A
8:20 AM55 °FPartly sunny.8 mph94%29.98 "HgN/A
7:50 AM55 °FPassing clouds.8 mph94%29.95 "HgN/A
7:20 AM54 °FSunny.6 mph100%29.95 "Hg10 mi
6:50 AM54 °FSunny.7 mph100%29.95 "Hg10 mi
6:20 AM54 °FPassing clouds.6 mph100%29.98 "HgN/A
5:50 AM54 °FPassing clouds.6 mph100%29.95 "HgN/A
5:20 AM55 °FPassing clouds.6 mph94%29.95 "HgN/A
4:50 AM55 °FPassing clouds.6 mph94%29.95 "HgN/A
4:20 AM55 °FPassing clouds.7 mph94%29.95 "HgN/A
3:50 AM55 °FPartly cloudy.6 mph100%29.95 "HgN/A
3:20 AM55 °FPassing clouds.6 mph100%29.95 "HgN/A
2:50 AM55 °FPassing clouds.6 mph100%29.95 "HgN/A
2:20 AM55 °FPassing clouds.6 mph100%29.95 "Hg5 mi
1:50 AM55 °FPartly cloudy.3 mph100%29.95 "HgN/A
1:20 AM54 °FPartly cloudy.3 mph100%29.98 "Hg4 mi
12:50 AM54 °FFog.6 mph100%29.98 "Hg1 mi
12:20 AM54 °FPassing clouds.5 mph100%29.98 "HgN/A
11:50 PM
Thu, Aug 25
55 °FPassing clouds.5 mph100%29.98 "HgN/A
11:20 PM55 °FPassing clouds.3 mph94%29.98 "HgN/A
Weather by CustomWeather, © 2016

See weather overviewHow to use our weather pages